Weather History for Youngstown, OH

Change the Weather History Date:

Friday, July 26, 2013

  Actual Average Record
Temperature  
Mean Temperature 64 °F 71 °F  
Max Temperature 78 °F 81 °F 97 °F (1940)
Min Temperature 50 °F 60 °F 49 °F (1975)
Degree Days  
Heating Degree Days 1 0  
Month to date heating degree days 8 8  
Since 1 June heating degree days 64 77  
Since 1 July heating degree days 8 8  
Cooling Degree Days 0 6  
Month to date cooling degree days 220 156  
Year to date cooling degree days 426 305  
Since 1 June cooling degree days 338 266  
Growing Degree Days 14 (Base 50)    
Moisture  
Dew Point 54 °F    
Average Humidity 71    
Maximum Humidity 100    
Minimum Humidity 41    
Precipitation  
Precipitation T in 0.13 in 2.05 in (2008)
Month to date precipitation 7.28 3.66  
Year to date precipitation 24.42 22.33  
Snow  
Snow 0.00 in 0.00 in - ()
Month to date snowfall 0.0 0.0  
Since 1 June snowfall T 0.0  
Since 1 July snowfall 0.0 0.0  
Snow Depth 0.00 in    
Sea Level Pressure  
Sea Level Pressure 30.06 in    
Wind  
Wind Speed 3 mph (South)    
Max Wind Speed 12 mph    
Max Gust Speed 14 mph    
Visibility 10 miles    
Events      
T = Trace of Precipitation, MM = Missing Value Source: NWS Daily Summary

Daily Weather History Graph

Daily Weather History Graph

Search for Another Location

Airport:

Trip Planner

Search our weather history database for the weather conditions in past years. The results will help you decide how hot, cold, wet, or windy it might be!

Date:

Astronomy

Jul. 26, 2013 Rise Set
Actual Time 6:12 AM EDT 8:45 PM EDT
Civil Twilight 5:40 AM EDT 9:16 PM EDT
Nautical Twilight 5:01 AM EDT 9:56 PM EDT
Astronomical Twilight 4:16 AM EDT 10:40 PM EDT
Moon 10:54 PM EDT (7/26) 10:50 AM EDT (7/26)
Length of Visible Light 15h 36m
Length of Day
14h 32m
Waning Gibbous, 80% of the Moon is Illuminated
Jul 26
Waning Gibbous
Jul 29
Last Quarter
Aug 6
New
Aug 14
First Quarter
Aug 20
Full

Hourly Weather History & Observations

Time (EDT) Temp. Dew Point Humidity Pressure Visibility Wind Dir Wind Speed Gust Speed Precip Events Conditions
12:51 AM 55.9 °F 52.0 °F 87% 30.10 in 10.0 mi ENE 3.5 mph - N/A   Clear
1:51 AM 55.9 °F 53.1 °F 90% 30.10 in 10.0 mi Calm Calm - N/A   Clear
2:51 AM 53.1 °F 52.0 °F 96% 30.09 in 10.0 mi Calm Calm - N/A   Clear
3:51 AM 52.0 °F 51.1 °F 97% 30.09 in 10.0 mi East 4.6 mph - N/A   Clear
4:51 AM 52.0 °F 50.0 °F 93% 30.09 in 10.0 mi Calm Calm - N/A   Clear
5:51 AM 51.1 °F 50.0 °F 96% 30.09 in 10.0 mi Calm Calm - N/A   Partly Cloudy
6:51 AM 52.0 °F 51.1 °F 97% 30.10 in 10.0 mi East 3.5 mph - N/A   Partly Cloudy
7:51 AM 59.0 °F 54.0 °F 83% 30.11 in 10.0 mi Calm Calm - N/A   Scattered Clouds
8:51 AM 64.0 °F 55.9 °F 75% 30.11 in 10.0 mi Calm Calm - N/A   Partly Cloudy
9:51 AM 68.0 °F 57.0 °F 68% 30.11 in 10.0 mi Calm Calm - N/A   Partly Cloudy
10:51 AM 72.0 °F 55.0 °F 55% 30.10 in 10.0 mi Calm Calm - N/A   Scattered Clouds
11:51 AM 73.9 °F 53.1 °F 48% 30.10 in 10.0 mi Variable 4.6 mph - N/A   Scattered Clouds
12:51 PM 75.0 °F 50.0 °F 41% 30.09 in 10.0 mi Variable 3.5 mph - N/A   Scattered Clouds
1:51 PM 75.9 °F 53.1 °F 45% 30.07 in 10.0 mi Variable 6.9 mph - N/A   Scattered Clouds
2:51 PM 77.0 °F 54.0 °F 45% 30.06 in 10.0 mi South 6.9 mph - N/A   Scattered Clouds
3:51 PM 78.1 °F 54.0 °F 43% 30.04 in 10.0 mi WSW 9.2 mph - N/A   Scattered Clouds
4:51 PM 75.9 °F 54.0 °F 46% 30.03 in 10.0 mi Variable 5.8 mph - N/A   Scattered Clouds
5:51 PM 77.0 °F 54.0 °F 45% 30.01 in 10.0 mi South 4.6 mph - N/A   Scattered Clouds
6:51 PM 77.0 °F 54.0 °F 45% 30.01 in 10.0 mi SSW 5.8 mph - N/A   Scattered Clouds
7:51 PM 73.9 °F 54.0 °F 50% 30.01 in 10.0 mi SSW 3.5 mph - N/A   Scattered Clouds
8:51 PM 68.0 °F 55.9 °F 65% 30.00 in 10.0 mi SSW 3.5 mph - N/A   Scattered Clouds
9:51 PM 63.0 °F 57.9 °F 84% 30.01 in 10.0 mi Calm Calm - N/A   Scattered Clouds
10:51 PM 66.0 °F 55.0 °F 68% 30.01 in 10.0 mi South 4.6 mph - N/A   Mostly Cloudy
11:51 PM 66.0 °F 55.0 °F 68% 29.99 in 10.0 mi South 4.6 mph - N/A   Mostly Cloudy